This is the latest recevied weather packets stored in our database for station/object KB4NWJ. If no packets are shown the sender has not sent any weather packets the latest 1 day(s).
| Time | Temp. | Humidity | Pressure | Rain* | Wind** | Luminosity | Snow |
|---|---|---|---|---|---|---|---|
| 1778012285 | 26.11° C | 40% | 1015 hPa | 0 mm | 2.24 m/s, 189° | 546 W/m² | - |
| 1778011983 | 26.11° C | 41% | 1015.4 hPa | 0 mm | 2.24 m/s, 305° | 529 W/m² | - |
| 1778011681 | 26.11° C | 42% | 1015.1 hPa | 0 mm | 0.89 m/s, 308° | 549 W/m² | - |
| 1778011378 | 25.56° C | 43% | 1015.3 hPa | 0 mm | 0.89 m/s, 308° | 578 W/m² | - |
| 1778011073 | 25° C | 41% | 1015.4 hPa | 0 mm | 0.45 m/s, 245° | 521 W/m² | - |
| 1778010771 | 25° C | 44% | 1015 hPa | 0 mm | 0 m/s | 570 W/m² | - |
| 1778010468 | 25.56° C | 41% | 1015.4 hPa | 0 mm | 1.79 m/s, 40° | 618 W/m² | - |
| 1778010164 | 25° C | 44% | 1015.5 hPa | 0 mm | 1.34 m/s, 140° | 632 W/m² | - |
| 1778009860 | 25.56° C | 42% | 1015.5 hPa | 0 mm | 1.79 m/s, 247° | 626 W/m² | - |
| 1778009558 | 25.56° C | 43% | 1015.4 hPa | 0 mm | 1.34 m/s, 219° | 597 W/m² | - |
| 1778009256 | 25.56° C | 42% | 1015.5 hPa | 0 mm | 1.34 m/s, 181° | 614 W/m² | - |
| 1778008953 | 25° C | 42% | 1015.6 hPa | 0 mm | 1.79 m/s, 225° | 570 W/m² | - |
| 1778008651 | 25° C | 43% | 1015.7 hPa | 0 mm | 0.89 m/s, 260° | 474 W/m² | - |
| 1778008350 | 25° C | 43% | 1015.9 hPa | 0 mm | 0.89 m/s, 257° | 542 W/m² | - |
| 1778008045 | 25.56° C | 41% | 1016 hPa | 0 mm | 2.24 m/s, 287° | 514 W/m² | - |
| 1778007745 | 25° C | 42% | 1015.7 hPa | 0 mm | 0.45 m/s, 239° | 638 W/m² | - |
| 1778007442 | 24.44° C | 45% | 1015.8 hPa | 0 mm | 1.34 m/s, 211° | 679 W/m² | - |
| 1778007139 | 25.56° C | 45% | 1016 hPa | 0 mm | 0.45 m/s, 242° | 681 W/m² | - |
| 1778006834 | 25° C | 45% | 1015.9 hPa | 0 mm | 0.45 m/s, 260° | 674 W/m² | - |
| 1778006532 | 25° C | 47% | 1015.9 hPa | 0 mm | 0.45 m/s, 249° | 684 W/m² | - |
| 1778006229 | 25° C | 45% | 1016 hPa | 0 mm | 0.89 m/s, 250° | 663 W/m² | - |
| 1778005927 | 25° C | 43% | 1016.4 hPa | 0 mm | 0.89 m/s, 223° | 646 W/m² | - |
| 1778005622 | 25.56° C | 44% | 1016.2 hPa | 0 mm | 1.34 m/s, 323° | 693 W/m² | - |
| 1778005320 | 25.56° C | 43% | 1016.4 hPa | 0 mm | 0.45 m/s, 241° | 725 W/m² | - |
| 1778005016 | 25° C | 43% | 1016.4 hPa | 0 mm | 0.89 m/s, 254° | 777 W/m² | - |
* Rain latest hour (hover to see other rain measurements)
** Current wind speed in m/s (hover to see current wind gust speed)